ORBCOMM FM105 [-] (41181 NORAD) Tracking and Keplerian Element Data

This shows tracking and keplerian element data for the satellite.

Feedback or suggestion? Click here.




ElementValue
Catalog41181
NameORBCOMM FM105 [-]
Epoch Orbit15294
Epoch Day317.52849505
Epoch Year2018
RAAN152.528
Inclination47.0004
Eccentricity0.0002049
Argument of Perigee337.5865
Mean Anonmoly22.4924
Mean Motion14.43318186
Decay Rate-8.4E-07
L11 41181U 15081C 18317.52849505 -.00000084 00000-0 21433-4 0 9998
L22 41181 47.0004 152.5280 0002049 337.5865 22.4924 14.43318186152940

Live tracking and technical data element details for ORBCOMM FM105 [-] (NORAD 41181). ORBCOMM FM105 [-] can be tracked NOW for your location showing map with azimuth and elevation plus other details from your city location.

Track the satellite on the map from your city or location and see movement details for azimuth, elevation, latitude, longitude, range, height, and movement on the map or in text.







IsCatalogInMostPopularTable: catalog: 41181, numindb: 119
Update: records affected: 1



GetName: 41181 ORBCOMM FM105 [-]

Hit Count: updated at: Wed, 14 Nov 2018 10:49:15 GMT